Find Starlink 6315

NORAD ID: 57236 Int'l Des: 2023-094 Owner: SPXS Country: US Constellation: starlink operational
LEOCIRCULAR

Live Position

Loading 3D Globe...

About Starlink 6315

Description loading...

Upcoming Passes

Passes for default location (London). Set your location on the main map for personalized predictions.

Altitude History

Loading altitude history...

Two-Line Element Set

1 57236U 23094U 26124.55872576 .00000388 00000-0 23624-4 0 9991
2 57236 43.0054 64.4462 0001871 282.3770 77.6872 15.27572443155786
Epoch: May 4, 2026 • Age: 11 hours

Current Status

Altitude 495.1 km
Velocity 7.62 km/s
Sub-Earth Point -42.81°S, 100.48°E
Launch Date Jul 7, 2023
Age 2.8 years
Type internet

Technical Details

Classification Payload
Mass 305.00 kg
Dry Mass 290.00 kg
Total Mass 305.00 kg
Length 0.20 m
Diameter 2.80 m
Span 9.00 m
Shape Box + pan
Manufacturer SPXS
Bus Type Starlink
Phase Status In Orbit
Owner/State SPXS/US

Most Searched